Race Results for
Tour de Murrieta
Murrieta, CA
(Event Information)
Time Trial on 03/09/2012

Note: Ranking points are NOT upgrade points. An explanation of ranking points can be found here.


Men - Cat 5

 Place Points NameCity, StateTime USAC #BibTeam
1540.00Robert Stotts   Burbank, CA10:39.89 34317  551 
2541.38Jeffrey Martin   Oceanside, CA11:00.90 319570  539 Crank Cycling
3542.76Trevor George   Orange, CA11:14.23 340988  520 Impact Racing 1
4544.14Ben Raymond   San Diego, CA11:29.67 362189  547 Catalyst Racing
5545.52David Howarth   La Mesa, CA11:36.38 365685  526 ACQUA AL 2/SDBC
6546.90Kevin Egelhoff   Encinitas, CA11:36.81 93703  514 Ranchos Cycling Club
7548.28Rich Jarrin   La Jolla, CA11:44.08 365930  527 ACQUA AL 2/SDBC
8549.66Jim Shampoe   Las Vegas, NV11:44.14 44047  550 CA Pools /CFS Mortgage
9551.04Chris Ludikhuize   Redlands, CA11:45.45 366777  538 Team Redlands
10552.42roger hauptman   Upland, CA11:47.34 358318  524 Southern California Velo
11553.80Chris Bohannon   Oceanside, CA11:49.30 244003  505 
12555.18Eric Boarman   San Diego11:57.27 345208  504 San Diego Bicycle Club
13556.56Anthony Navarra   San Diego11:58.82 366362  542 ACQUA AL 2/SDBC
14557.94mike bruggeman   Newport Beach, CA12:06.37 362391  507 Radsport Cycling Team
15559.32Samuel Worthington   San Rafael, CA12:06.47 237028  556 
16560.70Robert Bickerstaff   Carlsbad, CA12:09.41 331562  502 ACQUA AL 2/SDBC
17562.08Rick Lucia   Ramona, CA12:11.41 365927  537 ACQUA AL 2/SDBC
18563.46donovan chapparosa   Redlands, CA12:12.67 365558  508 Team Simple Green/Bike Religion
19564.84Jacob Gonzalez   Bonsall, CA12:13.09 366399  522 Team Simple Green/Bike Religion
20566.22Scott Rollins   San Diego, CA12:14.24 365452  549 Catalyst Racing
21567.60Matt Jaskol   Las Vegas, NV12:14.68 339382  528 CA Pools / CFS Mortgage
22568.98Kyle Mau   San Diego, CA12:14.77 366979  540 
23570.36Nick Jones   San Diego12:22.30 365932  532 ACQUA AL 2/SDBC
24571.74Jeffrey Mitchell   Las Vegas, NV12:23.35 298516  541 CA Pools /CFS Mortgage
25573.12Christian Eliason   Redlands, CA12:29.02 367941  515 Team Redlands
26574.50Jeremy johnson   Canyon Lake, CA12:34.70 364765  530 Team Simple Green/Bike Religion
27575.88Jesse Norton   Menifee12:44.24 366120  543 
28577.26Steven Lada   San Diego, CA12:45.35 316524  536 Catalyst Racing
29578.64Nathan Giddings   Hemet, CA12:55.16 366198  521 
30580.02Daniel Coronado   San Diego, CA13:02.14 364647  509 Catalyst Racing
31581.40Austin Curnow   San Diego, CA13:04.32 352522  510 Catalyst Racing
32582.78Randy Antonio   Temecula, CA13:04.70 370080  501 CA Pools / CFS Mortgage
33584.16Trent Bielaszka   Meridian, ID13:27.37 344444  503 Team Redlands
34585.54Christopher Palmer   Yucaipa13:40.48 357898  544 Team Redlands
35586.92Stephen Rash   Las Vegas, NV14:55.03 334456  546 Mandalay Bay/McGhie's
36588.30Miko Espanol   Seal Beach, CA15:01.88 365846  516 Sho-air/Rock 'n Road
37589.68Christian Kownacki   Chula Vista, CA19:17.99 310404  534 

Men - Cat 4

 Place Points NameCity, StateTime USAC #BibTeam
1501.85Stephen LAVERY   San Marcos, CA10:42.30 329654  457 Swami's Cycling Club
2504.11James Walsh   Encinitas, CA10:48.00 266213  128 DNA
3506.37James Beller   San Diego, CA11:05.68 296493  403 
4508.63John McNulty   Cerritos, CA11:06.01 50009  468 Bike Palace
5510.89Sean McKernan   Yorbalinda, CA11:06.45 293477  467 Canyon Velo
6513.15Sean Mulderig   San Diego, CA11:15.88 334908  474 ACQUA AL 2/SDBC
7515.41Christian Husband   Corona, CA11:16.30 291064  448 Team Velosport Club
8517.67Luis Alvarado   Riverside, CA11:20.59 337174  400 CA Pools /CFS Mortgage
9519.93Andrew McClure   Carlsbad, CA11:22.03 332936  465 Swami's Cycling Club
10522.19CHRIS NESBITT   Kerrville, TX11:25.92 331758  477 Moment Cycle Sport
11524.45Erik Der   San Diego, CA11:26.30 302928  424 ACQUA AL 2/SDBC
12526.71Lee Hodgin   Carlsbad, CA11:33.08 298554  445 Spy-Swami's Cycling Team
13528.97Braden Bott   Phoenix, AZ11:38.20 323426  407 Carlos OBriens Racing pb Tribe
14531.23Michael Relth   Los Angeles, CA11:39.03 333564  486 Velo Club LaGrange
15533.49Michael Tunzi   Claremont, CA11:40.55 360736  127 Majestic Cycling
16535.75Greg Kogut   Sandiego, CA11:41.45 303908  456 Moment Cycle Sport
17538.01Kyle Harwick   Glendora, CA11:41.83 334642  438 Southern California Velo
18540.27Christopher Murphy   Alta Loma, CA11:44.65 305269  476 Sho-air/Rock 'n Road
19542.53Solavann Sim   Irvine, CA11:48.24 358491  498 Sho-air/Rock 'n Road
20544.79Lucas DeBuren   Corona, CA11:49.90 330824  421 University of California-Riverside
21547.05Shannon OShea   Laguna Beach, CA11:51.29 288616  481 Team Simple Green/Bike Religion
22549.31Michael Burrows   Sandiego, CA11:51.69 306730  409 ACQUA AL 2/SDBC
23551.57Jacob Breidenbach   Losangeles, CA11:54.40 301639  408 
24553.83Jim Miller   San Diego, CA11:55.94 220797  469 Spy Blue
25556.09Drew Kogon   Pacific Palisades, CA11:57.35 313290  455 Velo Club LaGrange
26558.35Jan Rodina   Eagle, ID11:59.31 306173  490 
27560.61Luis Perez   Corona, CA12:02.13 331464  484 Canyon Velo
28562.87Salvador Cano   Riverside, CA12:14.26 337176  410 CA Pools /CFS Mortgage
29565.13Michael Ciauri   Irvine, CA12:27.47 340918  414 Sho-air/Rock 'n Road
30567.39Don Jean   Las Vegas, NV12:32.00 284610  450 CA Pools / CFS Mortgage
31569.65Tyler Hanel   Encinitas, CA12:37.64 331748  435 ACQUA AL 2/SDBC
32571.91Michael Finlay   Moreno Valley, CA12:43.15 309251  426 CA Pools /CFS Mortgage
33574.17mirko mangum   Carlsbad, CA12:57.67 323464  464 Swami's Cycling Club
34576.43Elliott Pallett   Los Angeles, CA13:00.64 362230  482 South Bay Wheelmen
35578.69Thomas Kenny   San Clemente, CA13:00.70 239395  454 HP Racing
36580.95Norman Houck   Newbury Park, CA13:00.79 177533  446 CVC / FRANCO Racing
37583.21Michael Morar   Temecula, CA13:50.75 333514  470 Team Dude Girl / Cycles Brixton
38585.47Taylor Tongate   Aliso Viejo, CA13:51.67 293248  124 Sho-air/Rock 'n Road
39587.73giovanni ortiz   Riverside, CA14:01.74 285225  479 Dons Bikes
40589.99Terrance Tongate   Aliso Viejo, CA15:43.74 297581  125 Sho-air/Rock 'n Road

Men - Cat 3

 Place Points NameCity, StateTime USAC #BibTeam
1377.79Tyler Schwartz   Newport Beach, CA10:27.89 304782  360 Surf City Cyclery/STERLING BMW
2383.68Brian Crooks   Murrieta, CA10:45.61 289664  317 Team Simple Green/Bike Religion
3389.57Dustin Andrews   Canyon Lake, CA10:51.50 277767  300 CA Pools / CFS Mortgage
4395.46Brady Kiss   Yucaipa, CA10:51.51 296904  341 Team Redlands
5401.35Collin Berry   Huntington Beach, CA10:54.25 298247  310 VRC
6407.24Dustin Armstrong   Oak Park, CA10:58.52 340320  367 CVC / FRANCO Racing
7413.13Riley Everett   Redlands, CA11:00.20 297293  369 SoCal Velo/Monster Media
8419.02Steven Davis   San Diego, CA11:00.39 256520  318 Spy Blue
9424.91Alcino Azevedo   Lakeside, CA11:00.76 276257  304 ACQUA AL 2/SDBC
10430.80Troy Huerta   Carlsbad, CA11:05.72 238313  334 Swami's Cycling Club
11436.69Christopher Bosch   San Francisco, CA11:08.36 261766  312 
12442.58Brian Sammuli   San Diego, CA11:10.35 165920  358 ACQUA AL 2/SDBC
13448.47David Mitchell   San Diego, CA11:12.40 199149  348 Swami's Cycling Club
14454.36Christopher Roots   San Diego, CA11:13.74 299323  370 Swami's Cycling Club
15460.25Steven Salazar   North Hollywood, CA11:15.53 89415  357 Bahati Foundation-CA
16466.14michael blevins   Sandy, UT11:18.23 308631  368 Canyon Velo
17472.03James LeVesque   Long Beach, CA11:19.68 151584  342 CA Pools /CFS Mortgage
18477.92Nick Gillock   Los Angeles, CA11:19.90 269508  328 Velo Club LaGrange
19483.81Daniel Gay   Temecula, CA11:23.07 214863  325 Get Crackin'-MS Society
20Jason HALL   11:26.82  331 Team Simple Green/Bike Religion
21495.59Christopher Thompson   Orange, CA11:31.21 76557  363 Team Helen's
22501.48James Jorgensen   Chino, CA11:33.82 336588  340 
23507.37Mario Coronado Jr.   Escondido, CA11:40.55 293308  315 Spy-Swami's Cycling Team
24513.26Raul Cortez   Oceanside, CA11:45.42 92852  316 CA Pools /CFS Mortgage
25519.15David Perez   San Pedro, CA11:52.50 243983  350 Bike Palace
26525.04Thomas Ryan   Oceanside, CA11:53.67 50214  356 Celo Pacific
27530.93Robert Angle   Costa Mesa, CA12:06.75 273166  301 Team Simple Green/Bike Religion
28536.82Brian Weaver   Murrieta, CA12:07.11 203150  365 CA Pools /CFS Mortgage
29Ken Jones   12:13.77  339 
30548.60Salvador Maciel   Chula Vista, CA12:16.91 277673  345 Ritte Racing
31554.49Barry Fink   Marina Del Rey, CA12:30.93 274796  322 VRC
32560.38Aaron Goodale   Murrieta, CA12:37.30 259142  329 CA Pools /CFS Mortgage
33566.27Ernest Sanchez   Murrieta, CA12:41.71 53550  359 CA Pools /CFS Mortgage
34572.16Jason Barney   San Diego, CA13:30.87 272145  305 CA Pools / CFS Mortgage
35578.05Kyle Jarboe   Redlands, CA13:53.85 296961  338 Team Redlands
36583.94Matthew Bigos   Cardiff By The Sea, CA14:08.77 276874  311 RIDE Cyclery
37589.83spencer ito   Long Beach, CA14:40.28 331486  337 Team Simple Green/Bike Religion

Men - Cat 2

 Place Points NameCity, StateTime USAC #BibTeam
1374.90Alexandre Darville   Santa Barbara, CA09:57.59 280894  207 Hammer Nutrition/CMG Racing Team
2381.16Logan Fiedler   Vista, CA10:26.65 277371  212 Team Revolution
3387.42Paul Kronser   San Luis Obipso, CA10:34.82 180954  219 TEAM CLIF BAR Cycling
4393.68Brian Zink   San Diego, CA10:41.98 263275  243 Team Revolution
5399.94Brian Ellis   Tucson, AZ10:45.52 288591  211 TriSports Cycling/Eclipse Racing
6406.20Jeffrey Pettis   Riverside, CA10:45.88 311467  227 Citrus Valley Velo
7412.46Justin Orkney   Tucson, AZ10:46.19 257895  226 TriSports Cycling/Eclipse Racing
8418.72Scott Hammack   San Diego, CA10:50.40 178612  215 Team Revolution
9424.98Justin Oien   Escondido, CA10:59.79 314666  225 Monster Media Racing SCVELO
10431.24Andre McNulty   Tucson, AZ11:03.80 260527  246 TriSports Cycling/Eclipse Racing
11437.50Alexander Kusztyk   Aliso Viejo, CA11:04.19 257227  221 Get Crackin'-MS Society
12443.76Matthew Holecko   Scottsdale, AZ11:04.92 148285  218 Carlos OBriens Racing pb Tribe
13450.02michael hand   Santa Clarita, CA11:08.06 263355  216 High Desert Cycling Club
14456.28Christopher Bennett   Oceanside, CA11:08.57 3316  200 Team Revolution
15462.54Michael Dziedzic   Scottsdale, AZ11:10.37 253798  209 TriSports Cycling/Eclipse Racing
16468.80John Van Dyke   Irvine Ca11:12.64 238430  237 Team Simple Green/Bike Religion
17475.06Paul Morris   Carson City, NV11:12.76 294725  224 TEAM CLIF BAR Cycling
18481.32Ryan Schneider   Huntington Beach, CA11:13.59 304909  230 Team Simple Green/Bike Religion
19487.58Erik Volotzky   Chatsworth, CA11:33.46 209303  238 Get Crackin'-MS Society
20493.84Stephen Ferretti   Crestline, CA11:33.67 193308  244 High Desert Cycling Club
21500.10Juan Cisneros   Chula Vista, CA11:34.65 215808  205 Team Revolution
22506.36Derek Steiner   Del Mar, CA11:40.13 90716  233 G S Adams Avenue Bicycles
23512.62Robert Scott   Prescott Valley, AZ11:40.46 79942  231 Carlos OBriens Racing pb Tribe
24518.88Benjamin Lair   Tucson, AZ11:50.69 149788  222 TriSports Cycling/Eclipse Racing
25525.14Shane Lawlor   San Clemente, CA11:58.77 195580  245 Monster Media Racing SCVELO
26531.40Adam Masters   Pasadena, CA12:23.63 256750  223 Wonderful Pistachios
27537.66Tyler Wertenbruch   Los Osos, CA12:29.83 155433  240 TEAM CLIF BAR Cycling
28543.92Christopher Chase   Marquette, MI18:32.73 241064  204 TriSports Cycling/Eclipse Racing

Men - Pro/Cat 1

 Place Points NameCity, StateTime USAC #BibTeam
1204.84Devan Dunn (1 - Cat1)   Newport Beach, CA09:55.90 287721  16 CashCall Mortgage
2214.58David Santos (2 - Cat1)   El Cajon, CA09:56.15 278526  40 CashCall Mortgage
3224.32Connor McCutcheon (3 - Cat1)   Bigbearlake, CA10:01.82 279388  32 Team Simple Green/Bike Religion
4234.06Christiaan Kriek   Temecula, CA10:04.00 367187  27 Team Simple Green/Bike Religion
5243.80Lee Muse (4 - Cat1)   Danville, CA10:04.39 281123  34 CashCall Mortgage
6253.54Lucas Binder (5 - Cat1)   San Diego, CA10:08.70 262024  Spy-Swami's Development Elite Team
7Michael WEICHT   10:13.68  45 
8273.02Menso de Jong (1 - Pro)   Cupertino, CA10:16.03 243003  15 UCI CT: Jelly Belly Cycling
9282.76Stefano Barberi   Newbury Park, CA10:17.93 136696  CashCall Mortgage
10292.50Lars Finanger (6 - Cat1)   The Woodlands, TX10:18.81 204441  19 Spy-Swami's Development Elite Team
11302.24Jonathan Hornbeck (7 - Cat1)   Wildomar, CA10:24.90 288624  49 Hagens Berman Cycling
12311.98Shane Buysse (8 - Cat1)   San Diego, CA10:25.46 271231  Spy-Swami's Development Elite Team
13321.72Norman Carter (9 - Cat1)   Beaumont, CA10:25.57 55077  13 Team Redlands
14331.46Jos LeRoux   Temecula, CA10:29.96 367190  30 Team Simple Green/Bike Religion
15341.20Austin Carroll (10 - Cat1)   Orange, CA10:30.06 192670  12 Team Simple Green/Bike Religion
16350.94Anthony Canevari (11 - Cat1)   Downey, CA10:32.22 293641  10 CashCall Mortgage
17360.68Cory Greenberg   Simi Valley, CA10:36.49 243988  21 Get Crackin'-MS Society
18370.42Christian Varley (12 - Cat1)   San Diego, CA10:43.78 367732  44 B&L Bikes
19380.16Christian Walker (13 - Cat1)   Goleta, CA10:44.44 50894  48 Time Factory Team
20389.90Cory Bruno (14 - Cat1)   El Cajon, CA10:44.70 277285  Spy-Swami's Development Elite Team
21399.64Brandon Trafton (15 - Cat1)   Sacramento, CA10:50.17 240033  42 Full Circle Cycling Powered by Pure Gear
22409.38Mike Tettleton   La Verne, CA10:51.51 206298  41 Full Circle Cycling Powered by Pure Gear
23Julio MOLLINDO   10:52.10  33 
24428.86Diego Yepez (16 - Cat1)   Claremont, CA10:52.30 288987  47 Full Circle Cycling Powered by Pure Gear
25Thor FRANCK   11:01.75  20 
26448.34Brian McCulloch (17 - Cat1)   Yucaipa, CA11:02.14 169774  31 CashCall Mortgage
27458.08Shawn VanGassen (18 - Cat1)   San Diego, CA11:08.77 156086  43 SoCalCycling.com / Echelon Design
28467.82Patrick Caro (19 - Cat1)   Claremont11:11.01 88582  11 Full Circle Cycling Powered by Pure Gear
29477.56Morgan Ryan   Ventura, CA11:17.15 177959  37 Get Crackin'-MS Society
30Michael Smith LARSEN   11:28.23  29 
31497.04Miles LaMon (20 - Cat1)   San Luis Obispo, CA11:30.06 187271  28 TEAM CLIF BAR Cycling
32506.78Justin Williams (21 - Cat1)   Los Angeles11:31.48 197316  46 CashCall Mortgage
33516.52Daniel Farinha (22 - Cat1)   San Jose, CA11:39.22 240558  18 Full Circle Cycling Powered by Pure Gear
34526.26Victor Ayala (23 - Cat1)   11:43.67 128496  Velo Club LaGrange

Men - Master - 35-99

 Place Points NameCity, StateTime USAC #BibTeam
1471.64Karl Bordine (1 - Cat1)   Carlsbad, CA10:20.40 163315  707 Monster Media Racing SCVELO
2477.48Gary Douville (2 - Cat1)   Santa Barbara, CA10:20.99 101476  719 Monster Media Racing SCVELO
3483.32Chris DeMarchi (3 - Cat1)   Chino, CA10:33.00 9156  717 Monster Media Racing SCVELO
4489.16Peter Andersen (4 - Cat1)   San Diego, CA11:00.04 142973  701 CA Pools /CFS Mortgage
5495.00Kayle Leo Grande (5 - Cat1)   Upland, CA11:02.60 58272  755 Monster Media Racing SCVELO
6500.84Kevin Phillips (6 - Cat1)   Redondo Beach, CA11:03.37 28056  741 ironfly
7506.68Robert Kamppila (7 - Cat1)   Cerritos, CA11:07.74 58194  730 CA Pools / CFS Mortgage
8512.52John Abate (8 - Cat1)   Encinitas, CA11:11.25 271862  700 Monster Media Racing SCVELO
9518.36Tomo Hamasaki (9 - Cat1)   Las Vegas11:17.89 50511  727 Monster Media Racing SCVELO
10524.20Michael Williams (1 - Cat2)   San Marcos, CA11:28.61 184434  754 CA Pools /CFS Mortgage
11530.04Evan Trubee (1 - Cat3)   Palm Desert, CA11:30.85 100279  749 Jessup Auto Plaza p/b P.S. Cyclery
12535.88Derric Swinfard (2 - Cat2)   Riverside, CA11:43.99 289275  748 Monster Media Racing SCVELO
13541.72Gregory Lonergan (3 - Cat2)   Redondo Beach, CA11:48.09 112571  735 Ironfly
14547.56David Bautista (2 - Cat3)   Poway, CA11:50.35 2952  703 CA Pools /CFS Mortgage
15553.40Richard Cimadoro (4 - Cat2)   Thousand Oaks, CA11:52.28 6934  709 Velo Club LaGrange
16559.24Fred Arellano (3 - Cat3)   Pasadena, CA11:55.22 240535  702 Suarez
17565.08Jonathan Davy (5 - Cat2)   Torrance, CA12:11.89 154991  716 ironfly
18570.92Justin Davanzo (4 - Cat3)   Santa Monica, CA12:18.56 55105  715 LA Velocity
19576.76Brad Foley (5 - Cat3)   Long Beach, CA12:46.67 42619  722 Team Velocity
20582.60Eric Ward (1 - Cat4)   Redlands, CA13:32.99 338182  753 
21588.44Chris Kozak (6 - Cat2)   San Diego, CA15:00.85 19737  731 

Men - Master - 45-99

 Place Points NameCity, StateTime USAC #BibTeam
1375.75Thurlow Rogers (1 - Cat1)   San Diego, CA10:11.36 30417  848 Breakaway from Cancer Masters
2381.11Roger Worthington (1 - Cat2)   Capistrano Beach, CA10:11.80 38984  866 Breakaway from Cancer Masters
3386.47Robb Mesecher (1 - Cat3)   Stevenson Ranch, CA10:32.07 263338  839 Breakaway from Cancer Masters
4391.83Steve Klasna (2 - Cat1)   Alpine, CA10:42.47 41924  829 Cynergy Cycles/Big Orange Cycling
5397.19Randall Tinney (2 - Cat2)   Santa Barbara, CA10:50.67 35624  859 CA Pools / CFS Mortgage
6402.55Greg Leibert (3 - Cat2)   Hermosa Beach, CA10:51.19 129138  832 Cynergy Cycles/Big Orange Cycling
7407.91Brett Clare (4 - Cat2)   Encinitas, CA10:59.04 47831  808 Breakaway from Cancer Masters
8413.27Scott Baker (2 - Cat3)   Lakeside, CA10:59.40 203286  801 UC Cyclery/JW Floors
9418.63Steven Strickler (5 - Cat2)   Newport Beach, CA11:01.02 107274  857 Breakaway from Cancer Masters
10423.99Brien Miller (3 - Cat3)   Palm Desert, CA11:01.16 292387  841 Jessup Auto Plaza p/b P.S. Cyclery
11429.35Benny Parks (6 - Cat2)   Rancho Mirage, CA11:08.58 27288  844 Jessup Auto Plaza p/b P.S. Cyclery
12434.71Andrew Jessup Jr. (4 - Cat3)   Rancho Mirage, CA11:10.84 17814  824 Jessup Auto Plaza p/b P.S. Cyclery
13440.07John Hatchitt (5 - Cat3)   Valencia, CA11:12.18 269026  823 Spy Blue
14445.43Dennis Andrews (1 - Cat4)   San Clemente, CA11:18.41 247992  800 CA Pools / CFS Mortgage
15450.79Joe Kolling (6 - Cat3)   Newport Beach, CA11:18.71 273962  830 Team Werks
16456.15Mark Palmer (7 - Cat3)   San Diego, CA11:18.79 272765  843 Breakaway from Cancer Masters
17461.51William Lupo (8 - Cat3)   Santa Barbara, CA11:20.07 237837  833 CA Pools /CFS Mortgage
18466.87William Wayne (9 - Cat3)   Ventura, CA11:20.53 257050  862 CVC / FRANCO Racing
19472.23Greg Fenton (10 - Cat3)   Ramona, CA11:24.49 11447  816 UC Cyclery/JW Floors
20477.59Russell Shapley (11 - Cat3)   Laguna Beach, CA11:25.26 207867  854 Team Simple Green/Bike Religion
21482.95Erich Schenk (2 - Cat4)   San Diego, CA11:32.07 310327  852 CA Pools / CFS Mortgage
22488.31Bart Clifford (7 - Cat2)   Thousand Oaks , CA11:32.68 263807  809 CVC / FRANCO Racing
23493.67Michael Quick (12 - Cat3)   San Diego, CA11:34.43 51575  846 UC Cyclery/JW Floors
24499.03Marvin Hall (8 - Cat2)   Sun City, CA11:35.14 328996  821 UC Cyclery/JW Floors
25504.39Thomas Kindberg (13 - Cat3)   Irvine, CA11:35.39 120660  827 UC Cyclery/JW Floors
26509.75Christopher Johnston   Wayzata, MN11:35.99 50643  826 Minnesota Cycling Team
27515.11Joshua Gruenberg (14 - Cat3)   San Diego, CA11:42.34 175392  820 Spy-Swami's Cycling Team
28520.47Robert Bingham (15 - Cat3)   Del Mar, CA11:42.92 49716  804 ACQUA AL 2/SDBC
29525.83John Conners (16 - Cat3)   San Clemente, CA11:57.46 7573  810 Radsport Cycling Team
30531.19Timothy Meza (17 - Cat3)   Laguna Woods, CA12:02.34 258639  840 Team Simple Green/Bike Religion
31536.55Dennis King (3 - Cat1)   Arroyo Grande, CA12:04.40 51230  828 Central Coast Tire CCT
32541.91Mark Tucsnak (9 - Cat2)   Pahrump, NV12:05.56 36036  860 
33547.27Patrick Pezzoli (3 - Cat4)   Leucadia12:09.09 238924  845 Velo Betty-Team 101
34552.63Craig Hamilton (18 - Cat3)   Phoenix, AZ12:10.84 166357  822 FASTER Performance Center
35557.99Michael Smyth (19 - Cat3)   Wildomar, CA12:11.22 48409  855 CA Pools /CFS Mortgage
36563.35Guy Roundy (20 - Cat3)   West Jordan, UT12:22.31 51897  849 CA Pools / CFS Mortgage
37568.71Dan DeMuth   Redlands, CA12:57.67 120335  814 Team Redlands
38574.07Tony Darr (21 - Cat3)   Imperial, CA13:01.17 8667  813 CA Pools / CFS Mortgage
39579.43Eric Johnson (10 - Cat2)   Redlands, CA13:34.30 55982  825 Team Redlands
40584.79Thomas Bielaszka (4 - Cat4)   Meridian, ID13:47.17 79453  803 Team Redlands
41590.15Patrick Marelly (5 - Cat4)   Vista, CA15:28.34 108714  899 Celo Pacific

Men - Master - 55-99

 Place Points NameCity, StateTime USAC #BibTeam
1479.27Malcolm Hill (1 - Cat2)   Westlake Village, CA10:53.31 156650  908 Breakaway from Cancer Masters
2486.19Mark Hoffenberg (2 - Cat2)   Santa Rosa Ca11:10.37 45461  910 Sho-air/Rock 'n Road
3493.11Michael Birditt (1 - Cat3)   Escondido, CA11:21.02 47255  901 Spy-Swami's Cycling Team
4500.03Michael Mueller (2 - Cat3)   El Cajon, CA11:23.97 46688  912 UC Cyclery/JW Floors
5506.95Kim Bleth (1 - Cat1)   Santa Barbara, CA11:25.38 49191  902 Spy-Swami's Cycling Team
6513.87Chuck Thompson (1 - Cat4)   Santa Barbara, CA11:35.88 193819  923 Polli Veloce
7520.79Kalman Szkalak (3 - Cat2)   Capistrano Beach, CA11:41.83 54522  927 UC Cyclery/JW Floors
8527.71John Robertson (3 - Cat3)   Temecula, CA11:53.30 257883  917 BMC/Walmart
9534.63Mark Ainslie (4 - Cat3)   Fallbrook, CA12:08.63 1254  900 
10541.55Scotty Bohlman (2 - Cat4)   Palm Desert, CA12:09.42 352540  903 Jessup Auto Plaza p/b P.S. Cyclery
11548.47Jean Villiot (3 - Cat4)   Murrieta, CA12:14.21 59805  925 CA Pools /CFS Mortgage
12555.39Steve Cahill (5 - Cat3)   Carlsbad, CA12:16.10 204724  906 Celo Pacific
13562.31Michael Hines (6 - Cat3)   Escondido, CA12:34.58 125061  909 UC Cyclery/JW Floors
14569.23Scott Olson (4 - Cat4)   Cockeysville, MD12:39.38 198038  913 
15576.15Richard Pfeiffer (7 - Cat3)   Carlsbad, CA12:44.11 27989  915 UC Cyclery/JW Floors
16583.07Alex Collins (4 - Cat2)   Orange Ca12:58.67 46255  907 UC Cyclery/JW Floors
17589.99Ken Burns (8 - Cat3)   Upland, CA13:51.10 95649  905 Southern California Velo

Women - Cat 1/2/3

 Place Points NameCity, StateTime USAC #BibTeam
1263.13Emily Kachorek   Sacramento, CA11:33.31 167636  619 Primal/MapMyRide Womens Racing
2274.40Julie Cutts   San Ramon, CA11:36.95 236645  609 Velo Club LaGrange
3285.67Ruth Clemence   Newport Beach, CA11:40.00 7113  607 SC VELO/Empower Coaching
4296.94Amber Gaffney   Claremont, CA11:49.50 349836  613 SC VELO/Empower Coaching
5308.21lisa campbell (1 - Cat2)   Newburypark, CA11:51.05 287503  606 SC VELO/Empower Coaching
6Mariah MCGREGOR   11:54.55  648 Colavita
7Loren ROWNEY   12:02.73  638 Specialized-lululeman
8342.02Melina Bernecker   Los Angeles, CA12:09.62 332272  601 Velo Club LaGrange
9353.29Joy McCulloch   Yucaipa, CA12:12.00 218863  626 Helens/Cannondale
10364.56Greta Neimanas   Colorado Springs, CO12:34.40 223804  630 Exergy TWENTY12
11375.83Kate Wilson (2 - Cat2)   Los Angeles, CA12:36.19 258361  646 NOW and Novartis for MS
12387.10holly breck   Santa Ynez, CA12:37.82 317802  603 SC VELO/Empower Coaching
13398.37Suzanne Sonye   Los Angeles, CA12:38.03 47513  641 Helens/Cannondale
14409.64Liza Rachetto   Los Altos, CA12:38.74 145511  632 Primal/MapMyRide Womens Racing
15420.91Belinda Eschenwald (3 - Cat2)   Laguna Niguel, CA12:42.50 230267  611 Velo Club LaGrange
16432.18Hilary Crowley   Alameda, CA12:59.37 211759  608 Team Revolution
17Jenny RIOS   13:01.65  634 
18454.72Anna Lang   La Jolla, CA13:03.29 167107  620 Velo Club LaGrange
19465.99Angela Wimberly (1 - Cat3)   San Diego, CA13:12.06 180041  647 CALCOAST Bikes San Diego
20477.26Trina Jacobson   San Diego, CA13:24.97 197383  618 Team Revolution
21488.53Melissa Paris (2 - Cat3)   Oceanside, CA13:29.14 348796  631 Team Dude Girl / Cycles Brixton
22499.80Amy Firth (3 - Cat3)   San Diego, CA13:30.13 292331  612 Catalyst Racing
23511.07Hannah Swan (4 - Cat2)   Alpine, CA13:36.29 311541  642 Strive Racing
24522.34Ryan Hostetter (5 - Cat2)   San Luis Obispo, CA13:37.80 191767  615 Metromint Cycling
25533.61Pey-Lih Littler (4 - Cat3)   Carlsbad, CA13:39.54 294290  621 ACQUA AL 2/SDBC
26544.88Raegan Lunsford (6 - Cat2)   Murrieta, CA13:41.42 274438  622 Team Dude Girl / Cycles Brixton
27556.15Priscilla Calderon   Costa Mesa, CA13:49.44 221486  605 SC VELO/Empower Coaching
28567.42Mary Ellen Ash   Menlo Park, CA13:50.95 254874  600 Stevens Bikes p/b Pactimo
29578.69Michelle Scharf (7 - Cat2)   Sacramento, CA14:28.66 258446  640 CA Pools / CFS Mortgage
30589.96Courtney Comer (5 - Cat3)   San Marcos, CA14:47.39 287901  649 ACQUA AL 2/SDBC

Report missing or incorrect license numbers

Volkswagen
USACDFCUORESpySierra NevadaShimanoBonk Breaker
UCI USA Cycling is the official governing body for all disciplines of competitive cycling in the United States. The 501c3, membership-based organization aims both to achieve sustained success in international cycling competition and to grow competitive cycling in America while delivering an exceptional customer experience.
View Children's Online Privacy Protection Policy
US Olympic Committee